Location: York
(31.8935°S, 116.7682°E)
Time: 23:18:02
(UTC+08:00)

Altair - All Passes

Search period start: 22 June 2021 00:00
Search period end: 02 July 2021 00:00
Orbit: 1501 x 1683 km, 47.2° (Epoch: 21 June)

Date Brightness Start Highest point End Pass type
(mag) Time Alt. Az. Time Alt. Az. Time Alt. Az.
22 Jun - 01:50:29 10° W 01:59:51 44° SSW 02:08:57 10° SE visible
22 Jun - 03:58:31 10° WSW 04:06:56 32° S 04:15:06 10° ESE visible
22 Jun - 06:04:28 10° SW 06:13:42 51° SSE 06:22:38 10° ENE visible
22 Jun - 08:09:27 10° WSW 08:18:32 57° NW 08:27:26 10° NNE daylight
22 Jun - 10:20:30 10° WNW 10:21:48 10° WNW 10:23:07 10° NW daylight
22 Jun - 21:19:25 10° NNE 21:25:27 18° ENE 21:31:25 10° E night (unlit)
22 Jun - 23:19:09 10° NW 23:29:12 72° NE 23:38:59 10° SE night (unlit)
23 Jun - 01:25:02 10° W 01:34:32 46° SSW 01:43:45 10° SE visible
23 Jun - 03:33:06 10° WSW 03:41:33 32° S 03:49:45 10° ESE visible
23 Jun - 05:39:14 10° SW 05:48:26 48° SSE 05:57:19 10° E visible
23 Jun - 07:44:11 10° WSW 07:53:25 63° NW 08:02:25 10° NNE daylight
23 Jun - 09:53:21 10° W 09:56:45 12° WNW 10:00:10 10° NW daylight
23 Jun - 20:55:10 10° NNE 21:00:22 15° ENE 21:05:31 10° E visible
23 Jun - 22:54:01 10° NW 23:04:01 66° NE 23:13:46 10° ESE night (unlit)
24 Jun - 00:59:36 10° W 01:09:13 49° SSW 01:18:34 10° SE visible
24 Jun - 03:07:41 10° WSW 03:16:11 32° S 03:24:25 10° ESE visible
24 Jun - 05:14:00 10° SW 05:23:10 46° SSE 05:31:59 10° E visible
24 Jun - 07:18:57 10° SW 07:28:18 69° NW 07:37:23 10° NE daylight
24 Jun - 09:27:09 10° W 09:31:43 15° WNW 09:36:15 10° NNW daylight
24 Jun - 20:31:09 10° NNE 20:35:16 13° ENE 20:39:21 10° E visible
24 Jun - 22:28:55 10° NNW 22:38:50 61° NE 22:48:32 10° ESE night (unlit)
25 Jun - 00:34:11 10° WNW 00:43:55 52° SSW 00:53:23 10° SE night (unlit)
25 Jun - 02:42:14 10° WSW 02:50:48 32° S 02:59:05 10° ESE visible
25 Jun - 04:48:46 10° SW 04:57:52 44° SSE 05:06:38 10° E visible
25 Jun - 06:53:43 10° SW 07:03:10 75° NW 07:12:19 10° NE daylight
25 Jun - 09:01:15 10° W 09:06:40 17° WNW 09:12:03 10° NNW daylight
25 Jun - 20:07:46 10° NE 20:10:11 11° ENE 20:12:35 10° ENE visible
25 Jun - 22:03:52 10° NNW 22:13:40 56° NE 22:23:18 10° ESE visible
26 Jun - 00:08:47 10° WNW 00:18:38 55° SSW 00:28:13 10° SE night (unlit)
26 Jun - 02:16:47 10° WSW 02:25:24 32° S 02:33:46 10° SE visible
26 Jun - 04:23:30 10° SW 04:32:34 42° SSE 04:41:16 10° E visible
26 Jun - 06:28:29 10° SW 06:38:01 81° NW 06:47:13 10° NE visible
26 Jun - 08:35:31 10° W 08:41:37 20° NW 08:47:40 10° NNW daylight
26 Jun - 21:38:50 10° NNW 21:48:31 51° NE 21:58:01 10° ESE visible
26 Jun - 23:43:25 10° WNW 23:53:21 58° SSW 00:03:02 10° SE night (unlit)
27 Jun - 01:51:19 10° WSW 02:00:01 33° S 02:08:28 10° SE visible
27 Jun - 03:58:14 10° SW 04:07:14 40° SSE 04:15:54 10° E visible
27 Jun - 06:03:16 10° SW 06:12:51 87° NW 06:22:06 10° NE visible
27 Jun - 08:09:53 10° WSW 08:16:33 22° NW 08:23:09 10° N daylight
27 Jun - 21:13:51 10° NNW 21:23:22 47° NE 21:32:44 10° ESE visible
27 Jun - 23:18:02 10° WNW 23:28:04 62° SSW 23:37:51 10° SE night (unlit)
28 Jun - 01:25:51 10° WSW 01:34:38 33° S 01:43:11 10° SE visible
28 Jun - 03:32:57 10° SW 03:41:55 38° SSE 03:50:32 10° E visible
28 Jun - 05:38:02 10° SW 05:47:42 87° SE 05:56:57 10° NE visible
28 Jun - 07:44:20 10° WSW 07:51:30 25° NW 07:58:34 10° N daylight
28 Jun - 20:48:54 10° NNW 20:58:13 42° NE 21:07:25 10° ESE visible
28 Jun - 22:52:42 10° WNW 23:02:48 66° SSW 23:12:40 10° SE visible
29 Jun - 01:00:22 10° WSW 01:09:15 34° S 01:17:54 10° SE visible
29 Jun - 03:07:39 10° SW 03:16:34 37° SSE 03:25:09 10° E visible
29 Jun - 05:12:49 10° SW 05:22:30 81° SE 05:31:47 10° NE visible
29 Jun - 07:18:50 10° WSW 07:26:26 28° NW 07:33:54 10° N daylight
29 Jun - 20:23:59 10° NNW 20:33:04 38° NE 20:42:04 10° ESE visible
29 Jun - 22:27:23 10° WNW 22:37:33 71° SW 22:47:29 10° SE visible
30 Jun - 00:34:54 10° WSW 00:43:52 35° SSW 00:52:37 10° SE night (unlit)
30 Jun - 02:42:21 10° SW 02:51:13 36° SSE 02:59:45 10° ESE visible
30 Jun - 04:47:36 10° SW 04:57:19 76° SE 05:06:36 10° ENE visible
30 Jun - 06:53:24 10° WSW 07:01:22 32° NW 07:09:10 10° N daylight
30 Jun - 19:59:07 10° N 20:07:57 35° NE 20:16:42 10° ESE visible
30 Jun - 22:02:05 10° WNW 22:12:17 76° SW 22:22:18 10° SE visible
01 Jul - 00:09:24 10° W 00:18:30 36° SSW 00:27:21 10° SE night (unlit)
01 Jul - 02:17:01 10° SW 02:25:51 35° SSE 02:34:22 10° ESE visible
01 Jul - 04:22:23 10° SW 04:32:06 71° SE 04:41:23 10° ENE visible
01 Jul - 06:27:59 10° WSW 06:36:18 35° NW 06:44:23 10° N visible
01 Jul - 19:34:18 10° N 19:42:49 31° NE 19:51:16 10° ESE visible
01 Jul - 21:36:49 10° NW 21:47:03 81° SW 21:57:07 10° SE visible
